Weather History for Long Prairie, MN

Change the Weather History Date:

Sunday, December 9, 2012

  Actual Average (KAXN) Record (KAXN)
Temperature  
Mean Temperature 17 °F -  
Max Temperature 28 °F 22 °F 50 °F (1990)
Min Temperature 5 °F 7 °F -24 °F (1977)
Degree Days  
Heating Degree Days 48    
Moisture  
Dew Point 19 °F    
Average Humidity 91    
Maximum Humidity 100    
Minimum Humidity 79    
Precipitation  
Precipitation 0.06 in - - ()
Sea Level Pressure  
Sea Level Pressure 29.96 in    
Wind  
Wind Speed 13 mph (North)    
Max Wind Speed 21 mph    
Max Gust Speed 31 mph    
Visibility 2 miles    
Events Rain , Snow    
Averages and records for this station are not official NWS values.
T = Trace of Precipitation, MM = Missing Value Source: NWS Daily Summary

Daily Weather History Graph

Daily Weather History Graph

Search for Another Location

Airport:

Trip Planner

Search our weather history database for the weather conditions in past years. The results will help you decide how hot, cold, wet, or windy it might be!

Date:

Astronomy

Dec. 09, 2012 Rise Set
Actual Time 7:49 AM CST 4:34 PM CST
Civil Twilight 7:15 AM CST 5:08 PM CST
Nautical Twilight 6:37 AM CST 5:46 PM CST
Astronomical Twilight 6:01 AM CST 6:22 PM CST
Moon 3:13 AM CST (12/9) 1:50 PM CST (12/9)
Length of Visible Light 9h 53m
Length of Day
8h 44m
Waning Crescent, 18% of the Moon is Illuminated
Dec 9
Waning Crescent
Dec 13
New
Dec 19
First Quarter
Dec 28
Full
Jan 4
Last Quarter

Hourly Weather History & Observations

Time (CST) Temp. Windchill Dew Point Humidity Pressure Visibility Wind Dir Wind Speed Gust Speed Precip Events Conditions
12:15 AM 26.6 °F 17.5 °F 26.6 °F 100% 29.98 in 2.5 mi ENE 9.2 mph - N/A Rain Light Freezing Rain
12:35 AM 28.4 °F 18.5 °F 26.6 °F 93% 29.97 in 2.0 mi ENE 11.5 mph - 0.01 in Rain Light Freezing Rain
12:55 AM 28.4 °F 18.5 °F 26.6 °F 93% 29.96 in 1.8 mi ENE 11.5 mph - 0.01 in Rain Light Freezing Rain
1:15 AM 28.4 °F 18.5 °F 26.6 °F 93% 29.95 in 2.0 mi ENE 11.5 mph - N/A Rain Light Freezing Rain
1:35 AM 28.4 °F 17.5 °F 26.6 °F 93% 29.95 in 1.8 mi ENE 13.8 mph - N/A Rain Light Freezing Rain
1:55 AM 28.4 °F 16.6 °F 26.6 °F 93% 29.94 in 2.0 mi ENE 16.1 mph - 0.01 in Rain Light Freezing Rain
2:15 AM 28.4 °F 16.6 °F 26.6 °F 93% 29.93 in 2.0 mi ENE 16.1 mph - N/A Rain Light Freezing Rain
2:35 AM 28.4 °F 17.5 °F 26.6 °F 93% 29.93 in 2.5 mi ENE 13.8 mph 18.4 mph N/A Rain Light Freezing Rain
2:55 AM 28.4 °F 17.0 °F 26.6 °F 93% 29.93 in 2.5 mi ENE 15.0 mph 19.6 mph N/A Rain Light Freezing Rain
3:15 AM 28.4 °F 17.5 °F 26.6 °F 93% 29.93 in 1.2 mi ENE 13.8 mph 21.9 mph N/A Rain Light Freezing Rain
3:35 AM 28.4 °F 18.0 °F 26.6 °F 93% 29.92 in 0.2 mi ENE 12.7 mph - N/A Rain Light Freezing Rain
3:55 AM 28.4 °F 19.1 °F 26.6 °F 93% 29.92 in 0.5 mi ENE 10.4 mph - 0.01 in   Overcast
4:15 AM 28.4 °F 18.0 °F 26.6 °F 93% 29.91 in 1.8 mi NE 12.7 mph 17.3 mph N/A Rain Light Freezing Rain
4:35 AM 28.4 °F 17.0 °F 26.6 °F 93% 29.92 in 3.0 mi ENE 15.0 mph - N/A Rain Light Freezing Rain
4:55 AM 28.4 °F 17.0 °F 26.6 °F 93% 29.92 in 3.0 mi ENE 15.0 mph 18.4 mph N/A Rain Light Freezing Rain
5:15 AM 28.4 °F 18.5 °F 26.6 °F 93% 29.93 in 2.5 mi NE 11.5 mph 20.7 mph 0.01 in Rain Light Freezing Rain
5:35 AM 28.4 °F 18.5 °F 26.6 °F 93% 29.92 in 4.0 mi NE 11.5 mph - 0.01 in Rain Light Freezing Rain
5:55 AM 28.4 °F 17.5 °F 26.6 °F 93% 29.92 in 2.0 mi NE 13.8 mph - 0.01 in Rain Light Freezing Rain
6:15 AM 28.4 °F 19.1 °F 26.6 °F 93% 29.92 in 1.8 mi NE 10.4 mph - 0.01 in Rain Light Freezing Rain
6:35 AM 28.4 °F 19.7 °F 26.6 °F 93% 29.92 in 2.0 mi NNE 9.2 mph - 0.01 in Rain Light Freezing Rain
6:55 AM 28.4 °F 19.7 °F 26.6 °F 93% 29.93 in 3.0 mi NNE 9.2 mph - 0.01 in Rain Light Freezing Rain
7:15 AM 28.4 °F 20.4 °F 26.6 °F 93% 29.93 in 3.0 mi NNE 8.1 mph - N/A Rain Light Freezing Rain
7:35 AM 28.4 °F 19.1 °F 26.6 °F 93% 29.94 in 3.0 mi NNE 10.4 mph - N/A Rain Light Freezing Rain
7:55 AM 28.4 °F 19.1 °F 26.6 °F 93% 29.94 in 3.0 mi NNE 10.4 mph - N/A Rain Light Freezing Rain
8:15 AM 28.4 °F 18.5 °F 26.6 °F 93% 29.94 in 3.0 mi NNE 11.5 mph 17.3 mph N/A Rain Light Freezing Rain
8:35 AM 26.6 °F 16.2 °F 26.6 °F 100% 29.94 in 2.0 mi North 11.5 mph 16.1 mph N/A Rain Light Freezing Rain
8:55 AM 26.6 °F 15.7 °F 26.6 °F 100% 29.95 in 2.5 mi North 12.7 mph 17.3 mph N/A Rain Light Freezing Rain
9:15 AM 26.6 °F 16.2 °F 26.6 °F 100% 29.95 in 2.0 mi North 11.5 mph - N/A Rain Light Freezing Rain
9:35 AM 26.6 °F 15.7 °F 26.6 °F 100% 29.95 in 1.5 mi North 12.7 mph 19.6 mph 0.01 in Rain Light Freezing Rain
9:55 AM 26.6 °F 16.2 °F 26.6 °F 100% 29.95 in 1.8 mi North 11.5 mph 17.3 mph 0.01 in Rain Light Freezing Rain
10:15 AM 26.6 °F 15.2 °F 26.6 °F 100% 29.95 in 1.8 mi North 13.8 mph 17.3 mph N/A Rain Light Freezing Rain
10:35 AM 26.6 °F 14.7 °F 26.6 °F 100% 29.96 in 1.5 mi North 15.0 mph 19.6 mph N/A Rain Light Freezing Rain
10:55 AM 26.6 °F 14.3 °F 24.8 °F 93% 29.95 in 1.5 mi North 16.1 mph 21.9 mph N/A Rain Light Freezing Rain
11:15 AM 26.6 °F 15.2 °F 24.8 °F 93% 29.95 in 2.0 mi North 13.8 mph 19.6 mph N/A Rain Light Freezing Rain
11:35 AM 26.6 °F 14.3 °F 24.8 °F 93% 29.94 in 2.0 mi North 16.1 mph 21.9 mph N/A Rain Light Freezing Rain
11:55 AM 24.8 °F 11.9 °F 23.0 °F 93% 29.94 in 1.8 mi NNW 16.1 mph 23.0 mph N/A Rain Light Freezing Rain
12:15 PM 23.0 °F 10.1 °F 21.2 °F 93% 29.93 in 1.8 mi NNW 15.0 mph 23.0 mph N/A Rain Light Freezing Rain
12:55 PM 21.2 °F 6.0 °F 19.4 °F 93% 29.93 in 1.2 mi NNW 19.6 mph 25.3 mph N/A Snow Light Snow
1:15 PM 21.2 °F 6.0 °F 17.6 °F 86% 29.93 in 1.2 mi NNW 19.6 mph 24.2 mph N/A Snow Light Snow
1:35 PM 21.2 °F 6.4 °F 17.6 °F 86% 29.92 in 0.8 mi NNW 18.4 mph 25.3 mph N/A Snow Light Snow
1:55 PM 19.4 °F 4.5 °F 17.6 °F 93% 29.92 in 0.8 mi NNW 17.3 mph 28.8 mph N/A Snow Light Snow
2:15 PM 19.4 °F 3.2 °F 17.6 °F 93% 29.92 in 0.5 mi NNW 20.7 mph 28.8 mph N/A Snow Light Snow
2:35 PM 19.4 °F 3.2 °F 17.6 °F 93% 29.92 in - NNW 20.7 mph 26.5 mph N/A   Unknown
2:55 PM 19.4 °F 4.5 °F 17.6 °F 93% 29.92 in - NNW 17.3 mph 23.0 mph N/A   Unknown
3:15 PM 19.4 °F 5.0 °F 15.8 °F 86% 29.93 in - NNW 16.1 mph 25.3 mph N/A   Overcast
3:35 PM 19.4 °F 3.6 °F 15.8 °F 86% 29.94 in - NNW 19.6 mph 31.1 mph N/A   Overcast
3:55 PM 17.6 °F 0.9 °F 15.8 °F 93% 29.95 in - NNW 20.7 mph 31.1 mph N/A   Overcast
4:15 PM 17.6 °F 2.2 °F 15.8 °F 93% 29.97 in - NNW 17.3 mph 24.2 mph N/A   Overcast
4:35 PM 17.6 °F 2.2 °F 14.0 °F 86% 29.97 in - NNW 17.3 mph 28.8 mph N/A   Overcast
4:55 PM 17.6 °F 2.2 °F 14.0 °F 86% 29.97 in - NNW 17.3 mph 27.6 mph N/A   Overcast
5:15 PM 15.8 °F -1.1 °F 12.2 °F 86% 29.99 in - NNW 19.6 mph 27.6 mph N/A   Unknown
5:35 PM 15.8 °F -0.6 °F 12.2 °F 86% 29.99 in - NNW 18.4 mph 25.3 mph N/A   Unknown
5:55 PM 15.8 °F -0.6 °F 12.2 °F 86% 30.00 in - NNW 18.4 mph 25.3 mph N/A   Unknown
6:15 PM 14.0 °F -3.0 °F 12.2 °F 93% 30.01 in - NNW 18.4 mph 28.8 mph N/A   Overcast
6:35 PM 14.0 °F -1.4 °F 12.2 °F 93% 30.01 in - NNW 15.0 mph 24.2 mph N/A   Overcast
6:55 PM 14.0 °F -1.4 °F 10.4 °F 86% 30.01 in - NNW 15.0 mph 25.3 mph N/A   Overcast
7:15 PM 14.0 °F -2.5 °F 10.4 °F 86% 30.02 in - NNW 17.3 mph 25.3 mph N/A   Overcast
7:35 PM 14.0 °F -2.0 °F 10.4 °F 86% 30.01 in - NNW 16.1 mph 23.0 mph N/A   Overcast
8:15 PM 12.2 °F -5.3 °F 8.6 °F 85% 30.02 in - NW 18.4 mph 24.2 mph N/A   Overcast
8:35 PM 12.2 °F -5.3 °F 8.6 °F 85% 30.02 in - NW 18.4 mph 23.0 mph N/A   Overcast
8:55 PM 12.2 °F -4.3 °F 6.8 °F 79% 30.02 in - NNW 16.1 mph 25.3 mph N/A   Overcast
9:15 PM 10.4 °F -7.2 °F 6.8 °F 85% 30.02 in - NNW 17.3 mph 23.0 mph N/A   Unknown
9:35 PM 10.4 °F -6.6 °F 5.0 °F 79% 30.02 in - NW 16.1 mph 21.9 mph N/A   Unknown
9:55 PM 8.6 °F -4.7 °F 5.0 °F 85% 30.02 in - NW 9.2 mph 17.3 mph N/A   Unknown
10:15 PM 8.6 °F -7.0 °F 3.2 °F 79% 30.01 in - NW 12.7 mph 19.6 mph N/A   Clear
10:35 PM 8.6 °F -7.0 °F 3.2 °F 79% 30.01 in - NW 12.7 mph 17.3 mph N/A   Clear
10:55 PM 6.8 °F -7.8 °F 1.4 °F 79% 30.00 in - NW 10.4 mph - N/A   Clear
11:15 PM 6.8 °F -8.6 °F 1.4 °F 79% 30.01 in - NW 11.5 mph 17.3 mph N/A   Clear
11:35 PM 5.0 °F -9.1 °F 1.4 °F 85% 30.00 in - NW 9.2 mph 16.1 mph N/A   Mostly Cloudy